Weather History for Wausau, WI

Change the Weather History Date:

Sunday, October 27, 2013

  Actual Average Record
Temperature  
Mean Temperature 42 °F 42 °F  
Max Temperature 52 °F 51 °F 80 °F (1927)
Min Temperature 32 °F 33 °F 16 °F (1976)
Degree Days  
Heating Degree Days 23 23  
Month to date heating degree days 451 494  
Since 1 July heating degree days 679 787  
Cooling Degree Days 0 0  
Month to date cooling degree days 0 0  
Year to date cooling degree days 506 405  
Moisture  
Dew Point 28 °F    
Average Humidity 60    
Maximum Humidity 82    
Minimum Humidity 38    
Precipitation  
Precipitation 0.00 in 0.08 in 1.98 in (1900)
Month to date precipitation 3.89 2.64  
Year to date precipitation 34.28 28.75  
Snow  
Snow 0.00 in 0.10 in 1.00 in (1919)
Month to date snowfall T 1.1  
Since 1 July snowfall T 1.1  
Since 1 September snowfall T 1.1  
Snow Depth 0.00 in    
Sea Level Pressure  
Sea Level Pressure 29.95 in    
Wind  
Wind Speed 8 mph (West)    
Max Wind Speed 17 mph    
Max Gust Speed 23 mph    
Visibility 10 miles    
Events      
T = Trace of Precipitation, MM = Missing Value Source: NWS Daily Summary

Daily Weather History Graph

Daily Weather History Graph

Search for Another Location

Airport:

Trip Planner

Search our weather history database for the weather conditions in past years. The results will help you decide how hot, cold, wet, or windy it might be!

Date:

Astronomy

Oct. 27, 2013 Rise Set
Actual Time 7:30 AM CDT 5:53 PM CDT
Civil Twilight 7:00 AM CDT 6:23 PM CDT
Nautical Twilight 6:25 AM CDT 6:58 PM CDT
Astronomical Twilight 5:51 AM CDT 7:32 PM CDT
Moon 12:10 AM CDT (10/27) 2:18 PM CDT (10/27)
Length of Visible Light 11h 23m
Length of Day
10h 23m
Last Quarter, 43% of the Moon is Illuminated
Oct 27
Last Quarter
Nov 3
New
Nov 9
First Quarter
Nov 17
Full
Nov 25
Last Quarter

Hourly Weather History & Observations

Time (CDT) Temp. Windchill Dew Point Humidity Pressure Visibility Wind Dir Wind Speed Gust Speed Precip Events Conditions
12:54 AM 39.0 °F 36.8 °F 30.0 °F 70% 30.01 in 10.0 mi SW 3.5 mph - N/A   Overcast
1:54 AM 39.0 °F 34.8 °F 30.0 °F 70% 30.01 in 10.0 mi WNW 5.8 mph - N/A   Overcast
2:54 AM 37.0 °F 34.5 °F 28.9 °F 73% 29.99 in 10.0 mi WSW 3.5 mph - N/A   Mostly Cloudy
3:54 AM 34.0 °F 28.8 °F 28.9 °F 82% 29.97 in 10.0 mi WSW 5.8 mph - N/A   Clear
4:54 AM 34.0 °F 28.8 °F 28.0 °F 79% 29.98 in 10.0 mi West 5.8 mph - N/A   Scattered Clouds
5:54 AM 35.1 °F 32.2 °F 28.0 °F 76% 29.97 in 10.0 mi WNW 3.5 mph - N/A   Overcast
6:54 AM 34.0 °F 28.0 °F 28.0 °F 79% 29.95 in 10.0 mi SSW 6.9 mph - N/A   Overcast
7:54 AM 33.1 °F 26.1 °F 27.0 °F 78% 29.96 in 10.0 mi SW 8.1 mph - N/A   Mostly Cloudy
8:54 AM 34.0 °F 28.0 °F 28.0 °F 79% 29.95 in 10.0 mi SW 6.9 mph - N/A   Clear
9:54 AM 37.9 °F 31.5 °F 28.0 °F 68% 29.95 in 10.0 mi SW 9.2 mph - N/A   Clear
10:54 AM 41.0 °F 34.3 °F 28.0 °F 60% 29.93 in 10.0 mi WSW 11.5 mph 19.6 mph N/A   Clear
11:54 AM 43.0 °F 36.4 °F 28.0 °F 56% 29.91 in 10.0 mi WSW 12.7 mph - N/A   Clear
12:54 PM 48.0 °F - 28.0 °F 46% 29.87 in 10.0 mi SSW 9.2 mph 20.7 mph N/A   Clear
1:54 PM 48.9 °F - 27.0 °F 43% 29.84 in 10.0 mi SW 13.8 mph - N/A   Clear
2:54 PM 51.1 °F - 26.1 °F 38% 29.83 in 10.0 mi SW 10.4 mph 20.7 mph N/A   Clear
3:54 PM 52.0 °F - 26.1 °F 37% 29.84 in 10.0 mi WSW 12.7 mph 18.4 mph N/A   Clear
4:54 PM 52.0 °F - 27.0 °F 38% 29.86 in 10.0 mi West 11.5 mph - N/A   Clear
5:54 PM 48.0 °F - 28.0 °F 46% 29.88 in 10.0 mi West 5.8 mph - N/A   Clear
6:54 PM 46.0 °F - 28.9 °F 51% 29.91 in 10.0 mi Calm Calm - N/A   Clear
7:54 PM 46.0 °F 42.5 °F 30.0 °F 54% 29.97 in 10.0 mi North 6.9 mph - N/A   Mostly Cloudy
8:54 PM 43.0 °F 37.7 °F 30.0 °F 60% 30.02 in 10.0 mi North 9.2 mph 19.6 mph N/A   Scattered Clouds
9:54 PM 39.9 °F 36.7 °F 30.0 °F 68% 30.06 in 10.0 mi NNE 4.6 mph - N/A   Clear
10:54 PM 39.0 °F 35.7 °F 28.9 °F 67% 30.09 in 10.0 mi North 4.6 mph - N/A   Clear
11:54 PM 37.9 °F 32.1 °F 30.0 °F 73% 30.12 in 10.0 mi North 8.1 mph - N/A   Clear